FENGYUN 1C DEB, 31194

Orbit data source: Space-Track

FENGYUN 1C DEB, 31194 is space debris in SSO originally from a launch on Mon, 10 May 1999 UTC launched from the Taiyaun Space Center, China (TSC). Fengyun 1C debris stems from the Chinese weather satellite Fengyun-1C, which was intentionally destroyed by a Chinese anti-satellite missile in 2007. This event dramatically increased the amount of space debris, with thousands of trackable fragments posing hazards to satellites and human spaceflight. The Fengyun 1C debris cloud has become a focal point in discussions about space sustainability and the need for international regulations to prevent the creation of new debris.

Loading next visibility...
Identifier
31194, 1999-025BJY
Orbit
SSO
Country
Flag of CNCN / PRC
Related business
Manufacturer
Unknown
Mission
Spacecraft
Bus & Motor
Unknown
Mass
Unknown
Launch date (UTC)
1999-05-10 (27 years ago)
Launch vehicle
Unknown
Launch site
Taiyaun Space Center, China (TSC)
Object type
Payload
Rocket body
Debris
Shape & HBR
Unknown shape, 0.1 m
Radar Cross Section
Small (<0.1 m²)

Expand to show TLE details & history
Last TLE update: 21 hours ago

TLE from 21 hours ago
0 FENGYUN 1C DEB
1 31194U 99025BJY 26236.18265478  .00001486  00000-0  49984-3 0  9999
2 31194  98.9437 140.6540 0055200 250.2070 109.3159 14.37847465  7518
Epoch: 2026-08-24T04:23Z
TLE epoch observation values (Epoch: 2026-08-24T04:23:01.372Z)
Latitude
-0.00001°
Longitude
102.43026°
Altitude
781.79 km
Speed
7.456 km/s
True Right ascension
09h 22m 36s
True Declination
0° 00' 00"
Sunlit
Object was in daylight at epoch
Visualization orbit readout
Latitude
Unknown
Longitude
Unknown
Altitude
Unknown
Speed
Unknown
Apparent Right ascension
Unknown
Apparent Declination
Unknown
Sunlit
N/A
Visualization observer readout
Local Sidereal Time
16:39:48
Azimuth
Unknown
Elevation
Unknown
Doppler factor
Unknown
Orbital elements
Apogee altitude
802.183 km
Perigee altitude
723.348 km
Semi-major axis
7,140.902 km
Eccentricity
0.00552
Inclination
98.9437°
RAAN
140.654°
Arg. of periapsis
250.207°
True anomaly
109.91147°
Mean anomaly
109.3159°
Eccentric anomaly
109.61382°
Mean motion
3.59678 °/min
Orbital period
100.09 mins
BSTAR
0.00049984
Loading maneuver chart data...
Computing Atmospheric mass density...
Loading historical data...
Loading historical data...
Loading historical data...
Loading historical data...
Loading historical data...
Loading historical data...
Loading historical data...

Documentation

Showing up to 5 results
|